(223452) = 2003 TK21

Discovered at Anderson Mesa on 2003-10-15 by LONEOS.

Orbit

Orbit type: Main Belt

Note: WebGL enabled browser required.

epoch2024-03-31.0
epoch JD2460400.5
perihelion date2021-12-06.79991
perihelion JD2459555.29992
argument of perihelion (°)280.99126
ascending node (°)180.47379
inclination (°)16.85662
eccentricity0.2231646
perihelion distance (AU)2.4901215
Tisserand w.r.t. Jupiter3.1
ΔV w.r.t. Earth (km/sec)11.1
semimajor axis (AU)3.2054688
mean anomaly (°)145.15309
mean daily motion (°/day)0.17173810
aphelion distance (AU)3.921
period (years)5.74
P-vector [x]-0.19842141
P-vector [y]0.97370873
P-vector [z]0.11189394
Q-vector [x]-0.98011387
Q-vector [y]-0.19684423
Q-vector [z]-0.02508300
absolute magnitude15.33
phase slope0.15
uncertainty0
referenceE2024-GF4
observations used555
oppositions16
arc length (days)11564
first opposition used1991
last opposition used2023
residual rms (arc-secs)0.69
perturbers coarse indicatorM-v
perturbers precise indicator003Ek
first observation date used1991-09-14.0
last observation date used2023-05-13.0
computer nameMPCLINUX
JD of orbit computation2456966.789391
perihelion JD uncertainty (days)9.9133E-05
argument of perihelion uncertainty (°)2.0888E-05
ascending node uncertainty (°)1.4344E-05
inclination uncertainty (°)6.4587E-06
eccentricity uncertainty 3.4405E-08
perihelion distance uncertainty (AU)1.1330E-07
Minimum Orbit Intersection Distances (in AU)
for orbit epoch: 2460400.5, reference: E2024-GF4
Mercury2.20318
Venus1.81962
Earth1.5721
Mars1.0377
Jupiter1.5985
Saturn6.28373
Uranus15.3783
Neptune26.4781

Observations

564 total observations over interval: 1991 09 14.32885 – 2023 05 13.658669
These data are available for download (format description).

Date (UT) J2000 RA J2000 Dec Magn Location Ref
1991 09 14.32885 23 30 17.11 +01 07 27.2   691 – Steward Observatory, Kitt Peak-Spacewatch MPS 126773
1991 09 14.36507 23 30 15.58 +01 07 09.7   691 – Steward Observatory, Kitt Peak-Spacewatch MPS 126773
1991 09 14.38539 23 30 14.76 +01 06 58.7 20.3 V 691 – Steward Observatory, Kitt Peak-Spacewatch MPS 126773
1999 01 23.20491 07 49 26.15 -02 54 33.6 19.2   704 – Lincoln Laboratory ETS, New Mexico MPS 126773
1999 01 23.22684 07 49 25.26 -02 54 24.6 19.2   704 – Lincoln Laboratory ETS, New Mexico MPS 126773
1999 01 23.24862 07 49 24.07 -02 54 15.5 18.8   704 – Lincoln Laboratory ETS, New Mexico MPS 126773
1999 01 23.27035 07 49 23.17 -02 54 06.2 18.9   704 – Lincoln Laboratory ETS, New Mexico MPS 126773
1999 01 23.29219 07 49 22.09 -02 53 56.9 18.8   704 – Lincoln Laboratory ETS, New Mexico MPS 126773
2000 05 05.376020 14 11 08.772 +00 58 00.64 20.10 V 645 – Apache Point-Sloan Digital Sky Survey MPS 126773
2000 05 05.379492 14 11 08.633 +00 58 01.76 20.79   645 – Apache Point-Sloan Digital Sky Survey MPS 126773
2003 09 24.61385 02 01 50.83 +03 39 23.5 20.3   608 – Haleakala-AMOS MPS 96379
2003 09 24.62428 02 01 50.56 +03 39 17.5 20.2   608 – Haleakala-AMOS MPS 96379
2003 09 24.63453 02 01 50.31 +03 39 11.9 20.6   608 – Haleakala-AMOS MPS 96379
2003 10 15.31848 01 50 22.90 +00 22 31.8 18.7 R 699 – Lowell Observatory-LONEOS MPS 90576
2003 10 15.33514 01 50 22.14 +00 22 21.5   699 – Lowell Observatory-LONEOS MPS 90576
2003 10 15.35173 01 50 21.55 +00 22 11.6   699 – Lowell Observatory-LONEOS MPS 90576
2003 10 15.36828 01 50 20.79 +00 22 04.1   699 – Lowell Observatory-LONEOS MPS 90576
2003 10 17.34644 01 49 00.69 +00 03 13.3 18.2   644 – Palomar Mountain/NEAT MPS 90576
2003 10 17.41620 01 48 57.75 +00 02 33.8 18.0   644 – Palomar Mountain/NEAT MPS 90576
2003 10 17.48038 01 48 55.10 +00 01 57.6 18.2   644 – Palomar Mountain/NEAT MPS 90576
2003 10 20.23912 01 47 01.85 -00 23 52.3 18.5   644 – Palomar Mountain/NEAT MPS 96379
2003 10 20.31512 01 46 58.58 -00 24 34.6 18.5   644 – Palomar Mountain/NEAT MPS 96379
2003 10 20.38234 01 46 55.69 -00 25 11.9 18.4   644 – Palomar Mountain/NEAT MPS 96379
2003 10 24.279970 01 44 13.764 -01 00 32.15 19.23 V 645 – Apache Point-Sloan Digital Sky Survey MPS 137023
2003 10 24.283442 01 44 13.612 -01 00 34.01 19.97   645 – Apache Point-Sloan Digital Sky Survey MPS 137023
2003 10 27.23666 01 42 11.50 -01 26 13.4 19.1 R 699 – Lowell Observatory-LONEOS MPS 96379
2003 10 27.24659 01 42 11.16 -01 26 19.1   699 – Lowell Observatory-LONEOS MPS 96379
2003 10 27.25658 01 42 10.67 -01 26 23.4   699 – Lowell Observatory-LONEOS MPS 96379
2003 10 27.26653 01 42 10.23 -01 26 28.0   699 – Lowell Observatory-LONEOS MPS 96379
2003 12 13.17536 01 25 28.05 -04 34 01.3 20.1   644 – Palomar Mountain/NEAT MPS 96379
2003 12 13.19753 01 25 28.22 -04 34 00.3 19.8   644 – Palomar Mountain/NEAT MPS 96379
2003 12 13.21847 01 25 28.34 -04 33 59.4 19.7   644 – Palomar Mountain/NEAT MPS 96379
2004 12 20.43456 10 00 10.04 -05 03 37.7 19.2 R 699 – Lowell Observatory-LONEOS MPS 126382
2004 12 20.45399 10 00 10.25 -05 03 41.2   699 – Lowell Observatory-LONEOS MPS 126382
2004 12 20.47342 10 00 10.56 -05 03 45.9   699 – Lowell Observatory-LONEOS MPS 126382
2004 12 20.49286 10 00 10.82 -05 03 48.2   699 – Lowell Observatory-LONEOS MPS 126382
2005 02 03.38397 09 48 01.04 -03 40 20.7 18.4   644 – Palomar Mountain/NEAT MPS 126382
2005 02 03.40475 09 48 00.17 -03 40 12.0 18.4   644 – Palomar Mountain/NEAT MPS 126382
2005 02 03.42906 09 47 59.17 -03 40 01.0 18.5   644 – Palomar Mountain/NEAT MPS 126382
2005 02 14.25002 09 40 29.59 -02 08 59.4 17.9 R 703 – Catalina Sky Survey MPS 126773
2005 02 14.25950 09 40 29.17 -02 08 52.9 18.2 R 703 – Catalina Sky Survey MPS 126773
2005 02 14.26899 09 40 28.76 -02 08 47.5 18.1 R 703 – Catalina Sky Survey MPS 126773
2005 02 14.27848 09 40 28.36 -02 08 42.6 18.4 R 703 – Catalina Sky Survey MPS 126773
2005 03 03.22523 09 29 43.08 +00 43 54.6 18.7 R 703 – Catalina Sky Survey MPS 127185
2005 03 03.23375 09 29 42.81 +00 44 00.7 18.6 R 703 – Catalina Sky Survey MPS 127185
2005 03 03.24231 09 29 42.53 +00 44 05.5 19.0 R 703 – Catalina Sky Survey MPS 127185
2005 03 03.25080 09 29 42.24 +00 44 10.8 18.7 R 703 – Catalina Sky Survey MPS 127185
2005 03 10.28940 09 26 24.60 +01 58 13.2 19.4 R 703 – Catalina Sky Survey MPS 127961
2005 03 10.30031 09 26 24.42 +01 58 19.2 19.6 R 703 – Catalina Sky Survey MPS 127961
2005 03 10.31141 09 26 24.19 +01 58 27.6 21.6 R 703 – Catalina Sky Survey MPS 127961
2005 03 10.32235 09 26 23.93 +01 58 33.6 19.8 R 703 – Catalina Sky Survey MPS 127961
2005 03 11.19115 09 26 03.73 +02 07 33.7 19.0 R 699 – Lowell Observatory-LONEOS MPS 129076
2005 03 11.20819 09 26 03.37 +02 07 42.9   699 – Lowell Observatory-LONEOS MPS 129076
2005 03 11.24394 09 26 02.45 +02 08 05.7   699 – Lowell Observatory-LONEOS MPS 129076
2005 03 11.26097 09 26 02.03 +02 08 15.5   699 – Lowell Observatory-LONEOS MPS 129076
2005 03 17.25095 09 24 09.15 +03 08 40.5 18.8 R 703 – Catalina Sky Survey MPS 129076
2005 03 17.25904 09 24 08.99 +03 08 45.8 18.8 R 703 – Catalina Sky Survey MPS 129076
2005 03 17.26712 09 24 08.90 +03 08 50.8 18.6 R 703 – Catalina Sky Survey MPS 129076
2005 03 17.27517 09 24 08.69 +03 08 54.7 18.2 R 703 – Catalina Sky Survey MPS 129076
2009 09 20.34591 03 34 49.62 +05 54 11.0 19.9 V 703 – Catalina Sky Survey MPS 295786
2009 09 20.35432 03 34 49.69 +05 54 07.2 19.5 V 703 – Catalina Sky Survey MPS 295786
2009 09 20.36284 03 34 49.76 +05 54 02.9 19.5 V 703 – Catalina Sky Survey MPS 295786
2009 09 20.37120 03 34 49.87 +05 53 58.4 19.8 V 703 – Catalina Sky Survey MPS 295786
2009 09 30.40738 03 35 43.33 +04 30 46.1 19.5 V G96 – Mt. Lemmon Survey MPS 296887
2009 09 30.41339 03 35 43.29 +04 30 43.1 19.6 V G96 – Mt. Lemmon Survey MPS 296887
2009 09 30.41946 03 35 43.29 +04 30 39.9 19.5 V G96 – Mt. Lemmon Survey MPS 296887
2009 09 30.42546 03 35 43.26 +04 30 36.6 19.5 V G96 – Mt. Lemmon Survey MPS 296887
2009 10 14.99581 03 32 46.53 +02 14 12.2 19.1 V J75 – OAM Observatory, La Sagra MPS 298286
2009 10 15.00892 03 32 46.22 +02 14 04.5 18.7 V J75 – OAM Observatory, La Sagra MPS 298286
2009 10 15.02207 03 32 45.90 +02 13 57.1 19.3 V J75 – OAM Observatory, La Sagra MPS 298286
2009 10 18.39450 03 31 23.37 +01 41 05.7 19.1 V 703 – Catalina Sky Survey MPS 299339
2009 10 18.40304 03 31 23.12 +01 41 00.4 18.9 V 703 – Catalina Sky Survey MPS 299339
2009 10 18.41159 03 31 22.90 +01 40 54.1 19.3 V 703 – Catalina Sky Survey MPS 299339
2009 10 18.42017 03 31 22.72 +01 40 49.9 19.0 V 703 – Catalina Sky Survey MPS 299339
2009 10 23.00436 03 29 08.54 +00 56 16.8 18.9 V J75 – OAM Observatory, La Sagra MPS 300627
2009 10 23.01678 03 29 08.11 +00 56 09.5 18.9 V J75 – OAM Observatory, La Sagra MPS 300627
2009 10 23.02918 03 29 07.69 +00 56 02.3 18.8 V J75 – OAM Observatory, La Sagra MPS 300627
2009 11 17.33638 03 11 55.60 -02 35 37.8 18.9 V 703 – Catalina Sky Survey MPS 304706
2009 11 17.34396 03 11 55.21 -02 35 40.3 19.0 V 703 – Catalina Sky Survey MPS 304706
2009 11 17.35171 03 11 54.81 -02 35 42.6 18.9 V 703 – Catalina Sky Survey MPS 304706
2009 11 17.35941 03 11 54.52 -02 35 46.1 19.3 V 703 – Catalina Sky Survey MPS 304706
2010 01 15.16098 02 57 34.66 -02 09 51.9 19.8 V 703 – Catalina Sky Survey MPS 311801
2010 01 15.16775 02 57 34.77 -02 09 48.1 19.4 V 703 – Catalina Sky Survey MPS 311801
2010 01 15.17458 02 57 34.92 -02 09 47.1 19.1 V 703 – Catalina Sky Survey MPS 311801
2010 01 15.18141 02 57 35.24 -02 09 44.7 20.2 V 703 – Catalina Sky Survey MPS 311801
2010 01 29.152241 03 05 41.94 -00 38 20.2   C51 – WISE MPS 343601
2010 01 29.284545 03 05 47.71 -00 37 24.1   C51 – WISE MPS 343601
2010 01 29.416850 03 05 53.51 -00 36 27.8   C51 – WISE MPS 343601
2010 01 29.549281 03 05 59.35 -00 35 31.4   C51 – WISE MPS 343601
2010 01 29.61537 03 06 02.25 -00 35 03.2   C51 – WISE MPS 343601
2010 01 29.681586 03 06 05.18 -00 34 34.7   C51 – WISE MPS 343601
2010 01 29.747674 03 06 08.10 -00 34 06.6   C51 – WISE MPS 343601
2010 01 29.747801 03 06 08.10 -00 34 06.6   C51 – WISE MPS 343601
2010 01 29.813890 03 06 11.02 -00 33 38.2   C51 – WISE MPS 343601
2010 01 29.880105 03 06 13.97 -00 33 09.9   C51 – WISE MPS 343601
